Location: Albuquerque Trailhead
(34.7934°N, 106.3736°W)
Time: 09:47:01
(UTC+00:00)

Exosat Rocket - Pass Details

Date: 30 October 2021
Orbit: 759 x 2516 km, 72.3° (Epoch: 08 December)

Event Time Altitude Azimuth Distance (km) Brightness Sun altitude
Exits shadow 08:27:50 12° 103° (ESE) 3,817 7.2 -59.5°
Maximum altitude 08:31:20 15° 81° (E) 3,865 7.3 -58.9°
Drops below altitude 10° 08:36:42 10° 54° (NE) 4,568 7.8 -58.0°
Sets 08:42:50 0° 34° (NE) 5,882 8.5 -57.0°
